Weather History for Ashland, WI

Change the Weather History Date:

Monday, January 7, 2013

  Actual Average Record
Temperature  
Mean Temperature 29 °F -  
Max Temperature 39 °F 19 °F 48 °F (2003)
Min Temperature 19 °F 0 °F -25 °F (1968)
Degree Days  
Heating Degree Days 36    
Moisture  
Dew Point 18 °F    
Average Humidity 62    
Maximum Humidity 75    
Minimum Humidity 50    
Precipitation  
Precipitation 0.00 in - - ()
Sea Level Pressure  
Sea Level Pressure 29.85 in    
Wind  
Wind Speed 12 mph (SW)    
Max Wind Speed 22 mph    
Max Gust Speed 29 mph    
Visibility 10 miles    
Events      
Averages and records for this station are not official NWS values.
T = Trace of Precipitation, MM = Missing Value Source: NWS Daily Summary

Daily Weather History Graph

Daily Weather History Graph

Search for Another Location

Airport:

Trip Planner

Search our weather history database for the weather conditions in past years. The results will help you decide how hot, cold, wet, or windy it might be!

Date:

Astronomy

Jan. 07, 2013 Rise Set
Actual Time 7:46 AM CST 4:33 PM CST
Civil Twilight 7:12 AM CST 5:08 PM CST
Nautical Twilight 6:34 AM CST 5:46 PM CST
Astronomical Twilight 5:57 AM CST 6:22 PM CST
Moon 3:06 AM CST (1/7) 12:47 PM CST (1/7)
Length of Visible Light 9h 55m
Length of Day
8h 46m
Waning Crescent, 22% of the Moon is Illuminated
Jan 7
Waning Crescent
Jan 11
New
Jan 18
First Quarter
Jan 26
Full
Feb 3
Last Quarter

Hourly Weather History & Observations

Time (CST) Temp. Windchill Dew Point Humidity Pressure Visibility Wind Dir Wind Speed Gust Speed Precip Events Conditions
12:53 AM 19.0 °F 10.0 °F 5.0 °F 54% 30.01 in 10.0 mi South 6.9 mph - N/A   Clear
1:53 AM 19.9 °F 10.1 °F 7.0 °F 57% 29.98 in 10.0 mi SSW 8.1 mph - N/A   Clear
2:53 AM 21.9 °F 11.0 °F 10.9 °F 63% 29.94 in 10.0 mi South 10.4 mph 19.6 mph N/A   Clear
3:53 AM 23.0 °F 13.9 °F 14.0 °F 68% 29.86 in 10.0 mi SSW 8.1 mph 19.6 mph N/A   Clear
4:53 AM 24.1 °F 11.0 °F 14.0 °F 65% 29.84 in 10.0 mi SW 16.1 mph 23.0 mph N/A   Clear
5:53 AM 23.0 °F 11.1 °F 14.0 °F 68% 29.85 in 10.0 mi SW 12.7 mph - N/A   Clear
6:53 AM 27.0 °F 14.3 °F 17.1 °F 66% 29.83 in 10.0 mi SW 17.3 mph 25.3 mph N/A   Clear
7:53 AM 27.0 °F 15.2 °F 17.1 °F 66% 29.83 in 10.0 mi SSW 15.0 mph 24.2 mph N/A   Clear
8:53 AM 28.9 °F 16.1 °F 19.0 °F 67% 29.80 in 10.0 mi SW 19.6 mph 27.6 mph N/A   Clear
9:53 AM 30.9 °F 18.7 °F 19.9 °F 64% 29.82 in 10.0 mi SW 19.6 mph 28.8 mph N/A   Clear
10:53 AM 32.0 °F 21.2 °F 21.0 °F 64% 29.81 in 10.0 mi SW 16.1 mph 27.6 mph N/A   Partly Cloudy
11:53 AM 34.0 °F 22.1 °F 21.9 °F 61% 29.79 in 10.0 mi SW 21.9 mph 27.6 mph N/A   Clear
12:53 PM 37.0 °F 27.4 °F 21.9 °F 54% 29.77 in 10.0 mi SW 17.3 mph 28.8 mph N/A   Clear
1:53 PM 39.0 °F 30.6 °F 23.0 °F 53% 29.78 in 10.0 mi SW 15.0 mph 25.3 mph N/A   Clear
2:53 PM 39.0 °F 30.6 °F 21.9 °F 50% 29.78 in 10.0 mi WSW 15.0 mph 24.2 mph N/A   Clear
3:53 PM 37.9 °F 29.6 °F 21.9 °F 53% 29.80 in 10.0 mi SW 13.8 mph 25.3 mph N/A   Clear
4:53 PM 37.0 °F 28.5 °F 21.9 °F 54% 29.81 in 10.0 mi SW 13.8 mph 21.9 mph N/A   Clear
5:53 PM 36.0 °F 27.1 °F 21.9 °F 57% 29.83 in 10.0 mi SW 13.8 mph 23.0 mph N/A   Clear
6:53 PM 34.0 °F 25.5 °F 21.9 °F 61% 29.85 in 10.0 mi SW 11.5 mph - N/A   Clear
7:53 PM 33.1 °F 24.4 °F 21.9 °F 64% 29.87 in 10.0 mi WSW 11.5 mph - N/A   Clear
8:53 PM 33.1 °F 23.4 °F 21.9 °F 64% 29.89 in 10.0 mi WSW 13.8 mph - N/A   Clear
9:53 PM 30.9 °F 22.8 °F 21.9 °F 69% 29.91 in 10.0 mi WSW 9.2 mph - N/A   Clear
10:53 PM 30.0 °F 21.7 °F 21.0 °F 69% 29.93 in 10.0 mi WSW 9.2 mph - N/A   Clear
11:53 PM 28.0 °F 20.0 °F 21.0 °F 75% 29.94 in 10.0 mi WSW 8.1 mph - N/A   Clear